Location: Newark
(11.2914°S, 14.4718°E)
Time: 23:21:31
(UTC+00:00)

Tiros 1 despin weight - Pass Details

Date: 19 September 2019
Orbit: 593 x 643 km, 48.2° (Epoch: 21 October)

Event Time Altitude Azimuth Distance (km) Brightness Sun altitude
Rises 06:47:21 0° 199° (SSW) 2,954 ? 26.9°
Reaches altitude 10° 06:50:17 10° 181° (S) 2,039 ? 27.6°
Maximum altitude 06:53:39 19° 135° (SE) 1,515 ? 28.4°
Drops below altitude 10° 06:56:59 10° 89° (E) 2,020 ? 29.2°
Sets 06:59:51 0° 71° (ENE) 2,917 ? 29.9°
